星链-34548 (STARLINK-34548)

导读

STARLINK-34548是美国太空探索技术公司(SpaceX)星链星座的一员,于2025年6月28日发射升空。星链项目旨在构建全球卫星互联网星座,为全球偏远地区、海洋空域等提供高速低延迟互联网接入服务,STARLINK-34548将助力星链进一步扩大小卫星组网覆盖范围,提升星座服务容量与稳定性。

Basic Information
目录编号:
64716
目录名称:
STARLINK-34548
国际标识:
2025-142W
轨道中心:
EARTH
卫星名称:
星链-34548
卫星全名:
星链-34548 (STARLINK-34548)
卫星状态:
在轨 (已飞行433 天)
发射日期:
2025-06-28 UTC
国别 :
美国 (US)
星等 :
--
Orbit Information
数据来源 国际轨道数据
星历时间: 2026-09-04T14:00:02+0800
10小时前
查看轨道信息
半长轴: 6893.742km
偏心率: 0.000318
轨道倾角: 70.000°
近地点辐角 272.462°
升交点赤经 223.952°
平近点角 122.008°
近地点: 513.412km
远地点: 517.798km
周期: 94.938分钟
每日圈数: 15.167718
Detailed Information
固有亮度:
5
最大亮度:
2.5
卫星平台:
Starlink V1.0
覆盖范围:
全球
运营商:
太空探索技术公司
运营商所在国:
美国
制造商(研发单位):
太空探索技术公司
制造商所在国:
美国
使用方式:
暂无
Satellite Introduction
Starlink 计划是 SpaceX 推出的全球卫星互联网项目,通过发射低轨道卫星,为全球尤其是偏远地区提供高速、低延迟的互联网服务。自 2019 年起,Starlink 已部署数千颗卫星,旨在缩小全球数字鸿沟,推动互联网普及。该项目还为军事、航空等行业提供通信支持,带来广泛经济效益。
2D Orbit Map
3D Orbit Map
Orbit Altitude Analysis Chart
Orbit Inclination Analysis Chart
Orbit Comprehensive Analysis Chart
View Comprehensive Chart
Conjunction Data List
Event ID Objects TCA Miss Dist (km) Collision Risk Probability Collision Risk Index (CRI) Action
CDM_260905-131204-867606-471621
2026-09-05T
13:12:54+0000
0.562 km
远距离
1.404759E-4 高风险 0.78
CDM_260907-031906-471606-608421
2026-09-07T
03:19:31+0000
1.083 km
极远距离
1.557121E-5 中风险 0.59
CDM_260906-012305-601106-471621
2026-09-06T
01:23:57+0000
2.007 km
极远距离
2.322125E-6 低风险 0.42
CDM_260906-082806-471606-799821
2026-09-06T
08:28:14+0000
2.178 km
极远距离
1.898923E-6 低风险 0.41
CDM_260905-060106-471606-525921
OBJECT A (65259)
2026-09-05T
06:01:12+0000
2.724 km
极远距离
1.52743E-6 低风险 0.39
CDM_260906-034506-471606-799821
2026-09-06T
03:45:39+0000
2.747 km
极远距离
1.240202E-6 低风险 0.37
CDM_260905-084006-273506-471621
2026-09-05T
08:40:08+0000
1.977 km
极远距离
1.237421E-6 低风险 0.37
CDM_260906-052005-705406-471621
2026-09-06T
05:20:50+0000
2.354 km
极远距离
1.165426E-6 低风险 0.36